Weather History for Miami, FL

Change the Weather History Date:

Saturday, December 7, 2013

  Actual Average Record
Temperature  
Mean Temperature 77 °F 72 °F  
Max Temperature 83 °F 79 °F 86 °F (1978)
Min Temperature 70 °F 65 °F 35 °F (1937)
Degree Days  
Heating Degree Days 0 1  
Month to date heating degree days 0 3  
Since 1 July heating degree days 2 6  
Cooling Degree Days 12 7  
Month to date cooling degree days 65 54  
Year to date cooling degree days 4606 4426  
Growing Degree Days 26 (Base 50)    
Moisture  
Dew Point 68 °F    
Average Humidity 73    
Maximum Humidity 87    
Minimum Humidity 58    
Precipitation  
Precipitation 0.13 in 0.06 in 2.70 in (1979)
Month to date precipitation 0.34 0.49  
Year to date precipitation 66.09 60.35  
Snow  
Snow 0.00 in - - ()
Month to date snowfall 0.0  
Since 1 July snowfall 0.0  
Snow Depth 0.00 in    
Sea Level Pressure  
Sea Level Pressure 30.18 in    
Wind  
Wind Speed 7 mph (East)    
Max Wind Speed 16 mph    
Max Gust Speed 31 mph    
Visibility 10 miles    
Events Rain    
T = Trace of Precipitation, MM = Missing Value Source: NWS Daily Summary

Daily Weather History Graph

Daily Weather History Graph

Search for Another Location

Airport:

Trip Planner

Search our weather history database for the weather conditions in past years. The results will help you decide how hot, cold, wet, or windy it might be!

Date:

Astronomy

Dec. 07, 2013 Rise Set
Actual Time 6:55 AM EST 5:30 PM EST
Civil Twilight 6:30 AM EST 5:55 PM EST
Nautical Twilight 6:01 AM EST 6:24 PM EST
Astronomical Twilight 5:33 AM EST 6:52 PM EST
Moon 10:58 AM EST (12/7) 10:47 PM EST (12/7)
Length of Visible Light 11h 25m
Length of Day
10h 35m
Waxing Crescent, 29% of the Moon is Illuminated
Dec 7
Waxing Crescent
Dec 9
First Quarter
Dec 17
Full
Dec 25
Last Quarter
Jan 1
New

Hourly Weather History & Observations

Time (EST) Temp. Heat Index Dew Point Humidity Pressure Visibility Wind Dir Wind Speed Gust Speed Precip Events Conditions
12:53 AM 73.9 °F - 66.0 °F 76% 30.17 in 10.0 mi ESE 4.6 mph - N/A   Partly Cloudy
1:53 AM 73.0 °F - 66.0 °F 79% 30.17 in 10.0 mi East 6.9 mph - N/A   Partly Cloudy
2:53 AM 72.0 °F - 66.0 °F 81% 30.16 in 10.0 mi Calm Calm - N/A   Partly Cloudy
3:53 AM 71.1 °F - 66.0 °F 84% 30.16 in 10.0 mi Calm Calm - N/A   Scattered Clouds
4:53 AM 72.0 °F - 66.9 °F 84% 30.16 in 10.0 mi NNW 3.5 mph - N/A   Scattered Clouds
5:53 AM 71.1 °F - 66.9 °F 87% 30.17 in 5.0 mi East 4.6 mph - 0.00 in Rain Rain
6:53 AM 71.1 °F - 69.1 °F 93% 30.19 in 10.0 mi Calm Calm - 0.02 in   Scattered Clouds
7:53 AM 73.9 °F - 70.0 °F 87% 30.21 in 10.0 mi Calm Calm - N/A   Scattered Clouds
8:53 AM 78.1 °F - 70.0 °F 76% 30.21 in 10.0 mi East 6.9 mph - N/A   Partly Cloudy
9:53 AM 80.1 °F 82.9 °F 69.1 °F 69% 30.22 in 10.0 mi ESE 11.5 mph 19.6 mph N/A   Scattered Clouds
10:53 AM 81.0 °F 84.1 °F 69.1 °F 67% 30.22 in 10.0 mi ESE 11.5 mph - N/A   Scattered Clouds
11:53 AM 81.0 °F 83.3 °F 66.9 °F 62% 30.20 in 10.0 mi East 11.5 mph 27.6 mph N/A   Scattered Clouds
12:53 PM 82.0 °F 85.5 °F 69.1 °F 65% 30.17 in 10.0 mi East 10.4 mph 24.2 mph N/A   Scattered Clouds
1:53 PM 82.0 °F 84.5 °F 66.9 °F 60% 30.15 in 10.0 mi ESE 10.4 mph 20.7 mph N/A   Scattered Clouds
2:53 PM 82.0 °F 84.5 °F 66.9 °F 60% 30.15 in 10.0 mi East 11.5 mph 19.6 mph N/A   Scattered Clouds
3:53 PM 81.0 °F 83.3 °F 66.9 °F 62% 30.15 in 10.0 mi ENE 10.4 mph - N/A   Scattered Clouds
4:53 PM 79.0 °F - 66.9 °F 66% 30.15 in 10.0 mi NE 10.4 mph - N/A   Scattered Clouds
5:53 PM 77.0 °F - 66.9 °F 71% 30.16 in 10.0 mi East 11.5 mph - N/A   Partly Cloudy
6:53 PM 77.0 °F - 68.0 °F 74% 30.17 in 10.0 mi ENE 5.8 mph - N/A   Partly Cloudy
7:53 PM 77.0 °F - 66.9 °F 71% 30.18 in 10.0 mi ENE 5.8 mph - N/A   Partly Cloudy
8:53 PM 77.0 °F - 68.0 °F 74% 30.17 in 10.0 mi East 9.2 mph - N/A   Partly Cloudy
9:22 PM 77.0 °F - 69.8 °F 78% 30.18 in 10.0 mi East 8.1 mph - N/A   Mostly Cloudy
9:51 PM 75.2 °F - 69.8 °F 83% 30.18 in 10.0 mi ENE 5.8 mph - 0.05 in Rain Light Rain
9:53 PM 75.0 °F - 70.0 °F 84% 30.19 in 10.0 mi ENE 4.6 mph - 0.05 in Rain Light Rain
10:53 PM 75.0 °F - 71.1 °F 87% 30.19 in 9.0 mi East 9.2 mph - 0.00 in Rain Light Rain
11:53 PM 75.0 °F - 71.1 °F 87% 30.19 in 10.0 mi East 8.1 mph - 0.06 in   Mostly Cloudy